QPF
0.04 0.07 0.09 0.13 0.21 0.17 0.12 0.10 0.10 0.09 0.07 0.05 0.03 0.03 0.04 0.03 0.03 0.04 0.04 0.04 0.03 0.04 0.07 0.11 0.11 0.08 0.06 0.05 0.04 0.03 0.03 0.04 0.05 0.05 0.08 0.09 0.06 0.03 0.02 0.01 0.01 0.00 0.00
0.04 0.08 0.09 0.10 0.18 0.18 0.14 0.12 0.11 0.10 0.07 0.05 0.05 0.04 0.03 0.03 0.03 0.04 0.05 0.04 0.04 0.04 0.04 0.07 0.11 0.13 0.10 0.07 0.06 0.04 0.03 0.04 0.04 0.05 0.05 0.07 0.07 0.04 0.02 0.02 0.01 0.00 0.00
0.06 0.08 0.09 0.09 0.15 0.17 0.14 0.12 0.10 0.10 0.07 0.05 0.06 0.07 0.05 0.03 0.03 0.03 0.04 0.03 0.03 0.03 0.04 0.04 0.06 0.10 0.14 0.10 0.07 0.05 0.03 0.03 0.04 0.04 0.04 0.04 0.04 0.03 0.02 0.01 0.01 0.01 0.00
0.06 0.07 0.09 0.09 0.12 0.13 0.12 0.12 0.11 0.09 0.07 0.06 0.06 0.07 0.08 0.06 0.03 0.02 0.03 0.03 0.02 0.02 0.02 0.02 0.03 0.05 0.10 0.14 0.10 0.07 0.05 0.03 0.03 0.04 0.04 0.04 0.02 0.02 0.01 0.01 0.01 0.01 0.00
0.05 0.07 0.08 0.09 0.12 0.12 0.11 0.11 0.11 0.10 0.08 0.06 0.06 0.07 0.07 0.07 0.06 0.03 0.02 0.03 0.04 0.03 0.02 0.02 0.03 0.04 0.06 0.09 0.14 0.11 0.06 0.04 0.03 0.03 0.03 0.04 0.03 0.02 0.01 0.01 0.01 0.01 0.00
0.04 0.07 0.07 0.08 0.11 0.12 0.12 0.10 0.10 0.09 0.07 0.06 0.05 0.06 0.05 0.04 0.05 0.04 0.03 0.03 0.04 0.04 0.04 0.03 0.03 0.03 0.04 0.05 0.10 0.14 0.10 0.04 0.03 0.03 0.03 0.03 0.03 0.03 0.02 0.01 0.01 0.01 0.00
0.05 0.05 0.04 0.06 0.10 0.09 0.09 0.09 0.09 0.09 0.07 0.05 0.04 0.05 0.04 0.03 0.03 0.04 0.03 0.03 0.03 0.03 0.04 0.05 0.04 0.04 0.04 0.03 0.05 0.10 0.15 0.09 0.03 0.02 0.02 0.02 0.02 0.02 0.02 0.02 0.02 0.01 0.00
0.05 0.04 0.03 0.05 0.08 0.07 0.07 0.06 0.05 0.07 0.06 0.04 0.04 0.05 0.04 0.02 0.01 0.02 0.03 0.03 0.03 0.03 0.04 0.04 0.04 0.04 0.04 0.04 0.03 0.04 0.08 0.13 0.08 0.02 0.01 0.01 0.01 0.01 0.01 0.02 0.02 0.01 0.01
0.06 0.04 0.03 0.04 0.06 0.06 0.06 0.05 0.04 0.05 0.05 0.03 0.03 0.04 0.03 0.02 0.02 0.02 0.02 0.03 0.03 0.03 0.04 0.04 0.04 0.04 0.04 0.05 0.04 0.03 0.03 0.06 0.10 0.06 0.01 0.01 0.01 0.01 0.01 0.01 0.01 0.01 0.01
0.07 0.06 0.04 0.03 0.04 0.06 0.07 0.06 0.04 0.04 0.04 0.02 0.03 0.03 0.03 0.02 0.02 0.02 0.02 0.02 0.02 0.02 0.03 0.04 0.05 0.04 0.04 0.05 0.05 0.03 0.03 0.03 0.05 0.07 0.05 0.02 0.01 0.00 0.00 0.00 0.00 0.01 0.01
0.07 0.07 0.04 0.02 0.03 0.04 0.07 0.07 0.05 0.04 0.04 0.02 0.02 0.02 0.02 0.02 0.02 0.01 0.02 0.02 0.02 0.03 0.03 0.04 0.05 0.05 0.05 0.05 0.05 0.04 0.03 0.03 0.03 0.04 0.05 0.03 0.01 0.01 0.00 0.01 0.01 0.00 0.00
0.06 0.06 0.04 0.02 0.02 0.03 0.05 0.07 0.06 0.04 0.04 0.03 0.02 0.03 0.02 0.01 0.01 0.01 0.01 0.01 0.02 0.03 0.03 0.04 0.05 0.05 0.05 0.05 0.05 0.04 0.04 0.03 0.03 0.03 0.02 0.03 0.02 0.01 0.01 0.01 0.01 0.00 0.00
0.06 0.06 0.04 0.02 0.02 0.02 0.03 0.04 0.05 0.05 0.05 0.04 0.03 0.04 0.03 0.02 0.02 0.01 0.01 0.01 0.02 0.02 0.02 0.03 0.04 0.05 0.05 0.04 0.04 0.04 0.04 0.03 0.02 0.03 0.02 0.02 0.02 0.01 0.01 0.01 0.00 0.00 0.00
0.04 0.05 0.05 0.04 0.03 0.02 0.03 0.03 0.03 0.04 0.04 0.04 0.04 0.05 0.05 0.03 0.02 0.02 0.02 0.01 0.02 0.02 0.03 0.03 0.03 0.04 0.04 0.04 0.03 0.03 0.03 0.03 0.02 0.02 0.02 0.01 0.01 0.01 0.01 0.01 0.00 0.00 0.00
0.02 0.04 0.06 0.06 0.04 0.03 0.03 0.03 0.03 0.03 0.04 0.04 0.04 0.05 0.06 0.06 0.04 0.02 0.02 0.02 0.02 0.02 0.03 0.03 0.03 0.04 0.04 0.04 0.03 0.02 0.02 0.02 0.02 0.01 0.01 0.01 0.01 0.01 0.01 0.01 0.01 0.01 0.01
0.01 0.02 0.04 0.06 0.07 0.05 0.04 0.04 0.03 0.03 0.04 0.04 0.05 0.05 0.05 0.05 0.06 0.04 0.02 0.02 0.02 0.01 0.02 0.03 0.03 0.03 0.04 0.04 0.04 0.02 0.01 0.01 0.01 0.01 0.01 0.01 0.01 0.01 0.01 0.01 0.01 0.01 0.01
0.01 0.01 0.02 0.04 0.05 0.06 0.05 0.05 0.05 0.04 0.04 0.04 0.05 0.05 0.05 0.04 0.04 0.05 0.04 0.03 0.02 0.02 0.02 0.03 0.03 0.03 0.03 0.04 0.03 0.02 0.02 0.01 0.01 0.01 0.01 0.01 0.01 0.01 0.01 0.02 0.02 0.01 0.01
0.01 0.01 0.02 0.03 0.04 0.05 0.05 0.04 0.04 0.04 0.05 0.05 0.05 0.05 0.05 0.05 0.04 0.04 0.04 0.03 0.03 0.02 0.02 0.03 0.03 0.03 0.03 0.03 0.03 0.02 0.02 0.01 0.01 0.01 0.00 0.01 0.01 0.01 0.01 0.02 0.02 0.02 0.02
0.01 0.02 0.02 0.03 0.03 0.04 0.04 0.04 0.04 0.04 0.04 0.06 0.05 0.04 0.04 0.04 0.05 0.04 0.03 0.03 0.03 0.02 0.02 0.03 0.03 0.03 0.03 0.04 0.03 0.02 0.01 0.01 0.01 0.01 0.01 0.00 0.00 0.01 0.01 0.01 0.02 0.02 0.02
0.01 0.02 0.03 0.03 0.03 0.03 0.03 0.04 0.04 0.04 0.04 0.05 0.04 0.04 0.04 0.04 0.04 0.05 0.04 0.03 0.03 0.03 0.02 0.02 0.02 0.02 0.02 0.03 0.03 0.03 0.01 0.01 0.01 0.01 0.01 0.01 0.01 0.01 0.01 0.01 0.01 0.02 0.01
0.02 0.02 0.03 0.03 0.03 0.03 0.04 0.04 0.04 0.05 0.05 0.04 0.03 0.03 0.03 0.03 0.04 0.04 0.04 0.04 0.04 0.04 0.03 0.02 0.01 0.02 0.02 0.02 0.03 0.03 0.02 0.01 0.01 0.01 0.01 0.01 0.01 0.01 0.01 0.01 0.01 0.01 0.01
0.02 0.02 0.03 0.03 0.02 0.03 0.04 0.03 0.03 0.04 0.04 0.03 0.02 0.02 0.03 0.03 0.03 0.03 0.04 0.04 0.04 0.04 0.03 0.02 0.01 0.01 0.02 0.02 0.03 0.04 0.03 0.02 0.01 0.01 0.01 0.01 0.01 0.01 0.01 0.01 0.01 0.01 0.01
0.02 0.02 0.03 0.02 0.02 0.02 0.03 0.03 0.02 0.02 0.03 0.02 0.02 0.02 0.02 0.02 0.02 0.02 0.03 0.03 0.04 0.04 0.03 0.02 0.02 0.02 0.02 0.02 0.03 0.04 0.03 0.03 0.02 0.01 0.01 0.01 0.01 0.02 0.01 0.01 0.01 0.01 0.01
0.01 0.02 0.03 0.02 0.02 0.02 0.02 0.02 0.03 0.03 0.03 0.02 0.02 0.01 0.01 0.01 0.01 0.01 0.02 0.02 0.02 0.03 0.03 0.03 0.02 0.02 0.02 0.03 0.03 0.04 0.04 0.03 0.02 0.02 0.02 0.02 0.02 0.02 0.02 0.02 0.01 0.00 0.00
0.01 0.02 0.02 0.02 0.02 0.01 0.02 0.02 0.02 0.02 0.02 0.01 0.01 0.01 0.01 0.01 0.01 0.01 0.01 0.01 0.01 0.02 0.03 0.03 0.03 0.02 0.02 0.03 0.03 0.04 0.04 0.04 0.03 0.02 0.02 0.02 0.02 0.02 0.01 0.01 0.01 0.00 0.01
0.01 0.02 0.02 0.01 0.01 0.01 0.01 0.01 0.01 0.01 0.01 0.01 0.01 0.01 0.01 0.01 0.01 0.00 0.00 0.01 0.01 0.01 0.02 0.02 0.02 0.02 0.02 0.03 0.03 0.03 0.04 0.04 0.03 0.02 0.02 0.02 0.02 0.01 0.01 0.01 0.01 0.01 0.01
MSLP
1016.41 1016.64 1016.90 1017.21 1017.58 1018.01 1018.51 1019.07 1019.64 1020.20 1020.70 1021.12 1021.44 1021.66 1021.80 1021.90 1021.97 1022.06 1022.17 1022.31 1022.47 1022.61 1022.72 1022.76 1022.72 1022.61 1022.42 1022.18 1021.91 1021.64 1021.37 1021.12 1020.90 1020.72 1020.56 1020.43 1020.33 1020.26 1020.21 1020.18 1020.17 1020.16 1020.16
1016.33 1016.49 1016.66 1016.88 1017.15 1017.49 1017.93 1018.44 1018.99 1019.56 1020.08 1020.54 1020.90 1021.16 1021.34 1021.46 1021.57 1021.68 1021.82 1021.99 1022.19 1022.38 1022.54 1022.63 1022.65 1022.57 1022.42 1022.20 1021.93 1021.64 1021.35 1021.08 1020.84 1020.62 1020.43 1020.27 1020.12 1019.99 1019.89 1019.80 1019.74 1019.69 1019.66
1016.40 1016.49 1016.58 1016.68 1016.84 1017.08 1017.42 1017.85 1018.36 1018.91 1019.44 1019.91 1020.29 1020.58 1020.78 1020.93 1021.05 1021.18 1021.34 1021.54 1021.78 1022.02 1022.23 1022.39 1022.47 1022.45 1022.34 1022.15 1021.90 1021.63 1021.34 1021.07 1020.82 1020.60 1020.39 1020.20 1020.03 1019.87 1019.71 1019.57 1019.45 1019.36 1019.29
1016.58 1016.62 1016.63 1016.63 1016.68 1016.80 1017.03 1017.38 1017.82 1018.31 1018.81 1019.27 1019.66 1019.96 1020.16 1020.32 1020.44 1020.58 1020.75 1020.98 1021.24 1021.53 1021.80 1022.02 1022.16 1022.21 1022.16 1022.02 1021.82 1021.58 1021.32 1021.07 1020.84 1020.64 1020.45 1020.27 1020.09 1019.92 1019.73 1019.55 1019.38 1019.22 1019.10
1016.82 1016.85 1016.81 1016.73 1016.68 1016.69 1016.81 1017.05 1017.40 1017.82 1018.27 1018.69 1019.05 1019.33 1019.53 1019.67 1019.79 1019.92 1020.10 1020.33 1020.62 1020.94 1021.26 1021.54 1021.75 1021.87 1021.88 1021.80 1021.66 1021.47 1021.27 1021.07 1020.89 1020.73 1020.58 1020.44 1020.29 1020.12 1019.93 1019.72 1019.50 1019.29 1019.09
1017.09 1017.14 1017.08 1016.96 1016.83 1016.75 1016.76 1016.89 1017.14 1017.47 1017.84 1018.20 1018.51 1018.75 1018.92 1019.04 1019.14 1019.26 1019.44 1019.67 1019.97 1020.32 1020.68 1021.00 1021.27 1021.44 1021.52 1021.50 1021.42 1021.30 1021.16 1021.03 1020.91 1020.82 1020.74 1020.66 1020.55 1020.41 1020.23 1020.01 1019.76 1019.49 1019.22
1017.37 1017.47 1017.43 1017.29 1017.12 1016.96 1016.87 1016.89 1017.03 1017.25 1017.52 1017.80 1018.05 1018.24 1018.37 1018.46 1018.54 1018.65 1018.81 1019.04 1019.35 1019.71 1020.08 1020.44 1020.74 1020.96 1021.08 1021.12 1021.10 1021.04 1020.96 1020.90 1020.86 1020.84 1020.84 1020.83 1020.78 1020.69 1020.54 1020.32 1020.04 1019.73 1019.40
1017.66 1017.82 1017.82 1017.69 1017.48 1017.27 1017.10 1017.01 1017.03 1017.14 1017.31 1017.49 1017.66 1017.79 1017.88 1017.94 1018.00 1018.09 1018.24 1018.47 1018.78 1019.14 1019.52 1019.89 1020.21 1020.45 1020.61 1020.69 1020.70 1020.69 1020.67 1020.66 1020.69 1020.74 1020.81 1020.87 1020.89 1020.85 1020.73 1020.53 1020.25 1019.91 1019.53
1017.95 1018.18 1018.22 1018.11 1017.89 1017.63 1017.39 1017.20 1017.11 1017.10 1017.15 1017.23 1017.32 1017.39 1017.43 1017.46 1017.51 1017.59 1017.74 1017.96 1018.26 1018.62 1019.00 1019.37 1019.69 1019.94 1020.11 1020.20 1020.24 1020.25 1020.26 1020.30 1020.37 1020.48 1020.60 1020.72 1020.80 1020.81 1020.73 1020.56 1020.29 1019.95 1019.55
1018.24 1018.53 1018.62 1018.53 1018.31 1018.01 1017.69 1017.41 1017.20 1017.08 1017.01 1016.99 1016.99 1017.00 1017.00 1017.01 1017.04 1017.12 1017.27 1017.50 1017.80 1018.15 1018.52 1018.88 1019.19 1019.43 1019.59 1019.69 1019.73 1019.75 1019.77 1019.83 1019.92 1020.06 1020.21 1020.37 1020.49 1020.55 1020.52 1020.38 1020.14 1019.81 1019.41
1018.52 1018.86 1019.00 1018.92 1018.69 1018.36 1017.97 1017.60 1017.29 1017.04 1016.86 1016.74 1016.65 1016.60 1016.56 1016.54 1016.57 1016.65 1016.81 1017.04 1017.34 1017.69 1018.06 1018.40 1018.70 1018.93 1019.09 1019.17 1019.20 1019.21 1019.23 1019.28 1019.37 1019.51 1019.67 1019.84 1019.99 1020.08 1020.08 1019.99 1019.79 1019.50 1019.13
1018.82 1019.20 1019.35 1019.29 1019.04 1018.67 1018.23 1017.77 1017.35 1017.00 1016.71 1016.48 1016.31 1016.18 1016.10 1016.06 1016.08 1016.17 1016.33 1016.57 1016.88 1017.23 1017.59 1017.93 1018.23 1018.45 1018.60 1018.67 1018.69 1018.68 1018.68 1018.70 1018.77 1018.89 1019.04 1019.20 1019.36 1019.46 1019.50 1019.44 1019.29 1019.04 1018.71
1019.15 1019.54 1019.70 1019.64 1019.38 1018.97 1018.46 1017.93 1017.42 1016.96 1016.56 1016.24 1015.98 1015.79 1015.65 1015.59 1015.59 1015.67 1015.84 1016.08 1016.39 1016.75 1017.12 1017.46 1017.76 1017.98 1018.12 1018.19 1018.20 1018.17 1018.14 1018.14 1018.17 1018.25 1018.37 1018.51 1018.65 1018.76 1018.82 1018.79 1018.68 1018.48 1018.20
1019.52 1019.91 1020.07 1019.99 1019.71 1019.26 1018.71 1018.11 1017.52 1016.96 1016.48 1016.06 1015.72 1015.45 1015.26 1015.15 1015.12 1015.19 1015.34 1015.58 1015.89 1016.25 1016.62 1016.98 1017.28 1017.51 1017.66 1017.73 1017.73 1017.69 1017.64 1017.60 1017.59 1017.63 1017.70 1017.81 1017.92 1018.02 1018.08 1018.08 1018.01 1017.85 1017.62
1019.95 1020.32 1020.46 1020.36 1020.05 1019.57 1018.98 1018.33 1017.67 1017.05 1016.48 1015.98 1015.56 1015.22 1014.96 1014.80 1014.73 1014.76 1014.89 1015.11 1015.41 1015.76 1016.13 1016.49 1016.80 1017.05 1017.21 1017.28 1017.29 1017.24 1017.16 1017.09 1017.04 1017.02 1017.05 1017.12 1017.20 1017.28 1017.33 1017.34 1017.30 1017.18 1016.99
1020.46 1020.78 1020.88 1020.74 1020.40 1019.89 1019.28 1018.59 1017.89 1017.22 1016.59 1016.03 1015.54 1015.13 1014.80 1014.57 1014.44 1014.42 1014.50 1014.69 1014.96 1015.28 1015.64 1016.00 1016.32 1016.57 1016.74 1016.82 1016.83 1016.77 1016.68 1016.57 1016.48 1016.43 1016.41 1016.42 1016.47 1016.52 1016.57 1016.59 1016.55 1016.46 1016.30
1021.03 1021.27 1021.30 1021.12 1020.75 1020.22 1019.59 1018.89 1018.18 1017.48 1016.81 1016.20 1015.65 1015.18 1014.79 1014.49 1014.29 1014.20 1014.21 1014.34 1014.56 1014.85 1015.18 1015.51 1015.81 1016.06 1016.23 1016.32 1016.32 1016.26 1016.15 1016.02 1015.90 1015.80 1015.75 1015.72 1015.74 1015.77 1015.80 1015.82 1015.79 1015.72 1015.59
1021.61 1021.76 1021.70 1021.46 1021.05 1020.52 1019.88 1019.19 1018.48 1017.78 1017.10 1016.46 1015.88 1015.35 1014.89 1014.52 1014.25 1014.08 1014.02 1014.07 1014.22 1014.45 1014.72 1015.01 1015.29 1015.51 1015.67 1015.75 1015.75 1015.68 1015.56 1015.41 1015.27 1015.15 1015.06 1015.01 1015.00 1015.01 1015.03 1015.04 1015.03 1014.97 1014.86
1022.17 1022.18 1022.03 1021.72 1021.29 1020.74 1020.12 1019.46 1018.77 1018.09 1017.42 1016.77 1016.16 1015.60 1015.08 1014.65 1014.30 1014.05 1013.90 1013.87 1013.93 1014.08 1014.28 1014.51 1014.73 1014.92 1015.05 1015.11 1015.09 1015.01 1014.89 1014.73 1014.58 1014.44 1014.34 1014.28 1014.26 1014.26 1014.28 1014.29 1014.29 1014.24 1014.15
1022.63 1022.50 1022.25 1021.89 1021.42 1020.88 1020.28 1019.66 1019.01 1018.36 1017.71 1017.07 1016.45 1015.86 1015.31 1014.81 1014.39 1014.06 1013.82 1013.69 1013.66 1013.72 1013.84 1013.99 1014.15 1014.28 1014.37 1014.40 1014.37 1014.29 1014.16 1014.01 1013.86 1013.73 1013.63 1013.57 1013.55 1013.55 1013.57 1013.59 1013.59 1013.56 1013.48
1022.94 1022.69 1022.36 1021.94 1021.46 1020.94 1020.38 1019.79 1019.19 1018.58 1017.96 1017.34 1016.71 1016.10 1015.51 1014.97 1014.48 1014.08 1013.76 1013.54 1013.41 1013.37 1013.40 1013.46 1013.55 1013.62 1013.67 1013.67 1013.63 1013.54 1013.42 1013.29 1013.16 1013.05 1012.96 1012.92 1012.91 1012.92 1012.94 1012.96 1012.96 1012.93 1012.86
1023.09 1022.75 1022.35 1021.91 1021.44 1020.94 1020.42 1019.88 1019.33 1018.75 1018.16 1017.55 1016.93 1016.30 1015.68 1015.09 1014.55 1014.08 1013.69 1013.38 1013.16 1013.03 1012.96 1012.94 1012.95 1012.97 1012.97 1012.94 1012.89 1012.81 1012.71 1012.60 1012.51 1012.42 1012.37 1012.34 1012.35 1012.37 1012.40 1012.42 1012.42 1012.38 1012.31
1023.10 1022.69 1022.27 1021.83 1021.38 1020.92 1020.45 1019.95 1019.44 1018.89 1018.32 1017.72 1017.09 1016.45 1015.81 1015.19 1014.60 1014.07 1013.61 1013.23 1012.93 1012.71 1012.55 1012.46 1012.39 1012.35 1012.31 1012.26 1012.21 1012.14 1012.06 1011.99 1011.93 1011.88 1011.86 1011.86 1011.88 1011.90 1011.93 1011.94 1011.93 1011.89 1011.80
1022.99 1022.58 1022.17 1021.76 1021.35 1020.92 1020.49 1020.03 1019.54 1019.01 1018.45 1017.84 1017.21 1016.56 1015.89 1015.24 1014.62 1014.05 1013.54 1013.09 1012.72 1012.42 1012.19 1012.02 1011.89 1011.79 1011.72 1011.65 1011.60 1011.54 1011.50 1011.46 1011.44 1011.43 1011.43 1011.45 1011.47 1011.50 1011.51 1011.51 1011.48 1011.42 1011.32
1022.84 1022.45 1022.08 1021.72 1021.35 1020.96 1020.56 1020.11 1019.64 1019.11 1018.54 1017.93 1017.29 1016.63 1015.95 1015.28 1014.64 1014.04 1013.48 1012.99 1012.56 1012.19 1011.89 1011.65 1011.46 1011.32 1011.20 1011.12 1011.06 1011.02 1011.00 1011.00 1011.01 1011.03 1011.05 1011.08 1011.10 1011.12 1011.11 1011.08 1011.03 1010.94 1010.82
1022.69 1022.35 1022.03 1021.71 1021.37 1021.01 1020.61 1020.18 1019.69 1019.16 1018.58 1017.96 1017.32 1016.65 1015.98 1015.31 1014.66 1014.04 1013.46 1012.92 1012.45 1012.03 1011.66 1011.36 1011.11 1010.91 1010.76 1010.66 1010.59 1010.56 1010.56 1010.57 1010.61 1010.64 1010.68 1010.71 1010.72 1010.72 1010.68 1010.63 1010.54 1010.43 1010.29
Thickness
5579 5583 5586 5590 5593 5596 5599 5602 5602 5605 5607 5609 5611 5612 5614 5615 5617 5619 5620 5622 5623 5624 5626 5627 5627 5628 5630 5631 5631 5630 5628 5626 5625 5625 5623 5620 5619 5617 5615 5613 5611 5609 5606
5568 5572 5577 5580 5583 5586 5590 5593 5595 5596 5599 5602 5604 5606 5607 5607 5609 5610 5612 5614 5615 5617 5618 5619 5620 5620 5621 5622 5622 5622 5621 5619 5617 5619 5619 5617 5614 5610 5607 5605 5602 5601 5599
5559 5563 5568 5571 5574 5578 5582 5584 5586 5588 5591 5594 5595 5596 5597 5599 5600 5602 5604 5606 5608 5609 5610 5611 5612 5613 5614 5615 5615 5614 5614 5613 5610 5609 5611 5612 5612 5606 5602 5598 5595 5593 5591
5550 5554 5558 5563 5567 5570 5573 5575 5577 5580 5583 5586 5588 5591 5592 5594 5596 5596 5597 5599 5600 5602 5603 5604 5605 5606 5607 5608 5607 5607 5607 5606 5604 5601 5600 5600 5600 5598 5597 5593 5589 5586 5584
5541 5544 5549 5554 5557 5560 5563 5566 5569 5572 5574 5577 5580 5582 5585 5586 5587 5588 5590 5592 5594 5595 5597 5597 5597 5598 5599 5600 5600 5599 5599 5598 5597 5595 5593 5591 5589 5588 5589 5588 5584 5580 5577
5534 5537 5540 5544 5546 5550 5553 5556 5560 5563 5565 5568 5571 5573 5576 5577 5578 5581 5584 5585 5587 5588 5588 5588 5590 5591 5592 5592 5592 5591 5591 5590 5589 5587 5586 5585 5584 5582 5580 5579 5577 5574 5571
5528 5529 5531 5534 5537 5540 5543 5547 5550 5553 5555 5558 5562 5565 5568 5570 5572 5574 5576 5578 5580 5580 5581 5581 5582 5583 5584 5584 5584 5583 5582 5582 5581 5580 5578 5576 5575 5573 5571 5570 5568 5565 5564
5520 5521 5523 5525 5528 5531 5534 5538 5541 5544 5546 5549 5553 5556 5559 5562 5565 5567 5569 5571 5572 5573 5573 5574 5575 5575 5576 5576 5576 5576 5574 5573 5573 5571 5569 5567 5565 5564 5562 5561 5558 5557 5557
5511 5513 5515 5517 5520 5523 5525 5529 5533 5535 5537 5540 5543 5547 5550 5552 5555 5558 5560 5562 5563 5564 5564 5566 5566 5567 5567 5568 5568 5569 5567 5566 5564 5563 5561 5559 5557 5555 5553 5551 5549 5548 5550
5502 5505 5507 5509 5511 5514 5518 5521 5523 5527 5529 5532 5535 5538 5541 5543 5546 5549 5551 5553 5555 5556 5557 5558 5558 5559 5559 5559 5560 5560 5559 5558 5556 5554 5552 5551 5549 5547 5544 5542 5541 5539 5539
5495 5497 5499 5500 5501 5504 5508 5511 5515 5517 5520 5523 5526 5529 5532 5534 5537 5540 5542 5544 5546 5547 5549 5550 5550 5551 5551 5552 5552 5552 5551 5549 5548 5546 5544 5543 5540 5539 5536 5534 5532 5530 5529
5485 5488 5490 5491 5492 5494 5497 5501 5505 5507 5510 5513 5517 5520 5522 5525 5529 5531 5533 5535 5537 5538 5540 5541 5541 5542 5544 5544 5545 5545 5543 5542 5541 5539 5537 5535 5532 5530 5528 5526 5524 5522 5521
5475 5478 5479 5480 5482 5484 5486 5490 5494 5497 5499 5503 5506 5510 5513 5516 5519 5522 5524 5525 5527 5529 5530 5531 5533 5534 5535 5536 5536 5536 5535 5534 5533 5531 5529 5528 5525 5523 5521 5518 5517 5514 5512
5464 5466 5468 5470 5471 5473 5476 5480 5484 5487 5489 5492 5496 5500 5503 5506 5510 5512 5515 5516 5518 5519 5521 5522 5523 5525 5526 5527 5527 5527 5527 5526 5524 5523 5521 5520 5518 5517 5514 5511 5509 5506 5504
5453 5454 5456 5458 5460 5463 5466 5469 5473 5477 5480 5483 5487 5490 5493 5496 5499 5501 5504 5506 5508 5510 5511 5513 5514 5516 5518 5519 5519 5519 5518 5517 5516 5515 5514 5513 5511 5509 5506 5504 5501 5499 5496
5443 5444 5445 5447 5449 5452 5455 5458 5462 5466 5470 5473 5477 5480 5483 5486 5489 5491 5494 5496 5498 5500 5502 5503 5506 5508 5509 5510 5510 5510 5510 5509 5509 5508 5507 5505 5503 5500 5497 5495 5493 5491 5489
5432 5434 5435 5436 5438 5441 5444 5449 5452 5456 5460 5463 5467 5470 5473 5475 5478 5481 5484 5486 5489 5490 5493 5495 5497 5499 5500 5500 5501 5500 5501 5501 5500 5500 5499 5498 5496 5493 5491 5488 5484 5482 5478
5421 5424 5425 5427 5429 5432 5435 5438 5442 5446 5450 5453 5457 5459 5462 5465 5468 5471 5474 5477 5479 5481 5483 5485 5487 5489 5491 5491 5491 5491 5492 5493 5492 5492 5491 5490 5488 5486 5483 5481 5478 5475 5472
5411 5413 5416 5418 5420 5423 5425 5429 5433 5437 5440 5444 5447 5450 5453 5456 5460 5463 5465 5467 5470 5472 5474 5476 5477 5480 5481 5481 5482 5483 5484 5484 5484 5483 5483 5482 5480 5478 5476 5473 5471 5468 5465
5401 5403 5406 5409 5411 5413 5416 5420 5425 5428 5431 5434 5437 5440 5444 5447 5450 5453 5455 5458 5461 5463 5464 5466 5468 5470 5472 5472 5473 5474 5476 5477 5476 5475 5475 5474 5472 5470 5467 5466 5464 5462 5459
5392 5394 5396 5399 5401 5404 5407 5412 5416 5418 5421 5424 5427 5431 5435 5438 5441 5444 5446 5449 5451 5453 5455 5457 5459 5461 5463 5463 5464 5466 5468 5468 5468 5468 5467 5466 5464 5462 5459 5458 5456 5454 5451
5383 5385 5387 5390 5392 5395 5399 5403 5406 5408 5411 5415 5419 5423 5426 5429 5432 5434 5437 5439 5441 5443 5445 5448 5450 5452 5454 5455 5456 5457 5458 5459 5459 5459 5459 5457 5455 5453 5452 5450 5448 5444 5442
5375 5376 5378 5381 5384 5386 5390 5393 5396 5399 5402 5406 5410 5413 5417 5420 5423 5425 5427 5430 5432 5435 5437 5439 5442 5443 5445 5446 5447 5448 5449 5449 5450 5450 5450 5448 5447 5445 5443 5441 5439 5437 5435
5367 5368 5370 5372 5375 5377 5380 5383 5386 5389 5393 5397 5401 5404 5407 5410 5413 5415 5418 5421 5423 5426 5428 5431 5433 5434 5435 5437 5439 5440 5440 5441 5441 5441 5440 5439 5437 5436 5434 5433 5431 5429 5427
5359 5360 5362 5364 5366 5369 5371 5374 5377 5381 5384 5388 5391 5394 5397 5400 5403 5406 5408 5411 5414 5416 5419 5421 5424 5426 5428 5429 5430 5431 5432 5433 5433 5432 5431 5431 5429 5428 5427 5425 5424 5422 5419
5351 5352 5354 5355 5357 5360 5363 5365 5368 5371 5375 5378 5382 5385 5388 5391 5394 5396 5399 5400 5403 5406 5408 5411 5414 5417 5419 5420 5421 5422 5423 5424 5424 5424 5424 5423 5422 5421 5420 5418 5416 5414 5413